Home > Weather > Lørenskog > Past weeks

Flag for Norway Past Weather in Lørenskog, Norway — Yesterday and Last 2 Weeks

Now
66 °F

Mild.


Feels Like: 66 °F
Forecast: 53 / 69 °F
Wind: 6 mph from South

Location: Oslo-Blindern

Current Time: Aug 26, 2016 at 3:55:52 PM

Latest Report: Aug 26, 2016 at 3:00 PM


Visibility: 9 mi

Pressure: 29.69 "Hg

Humidity: 87%

Dew Point: 62 °F

Location of LørenskogLocation

Past Weather in Lørenskog — Graph

°F

Lørenskog Temperature Yesterday

Maximum temperature yesterday: 65 °F (at 2:00 PM)
Minimum temperature yesterday: 62 °F (at 12:00 AM)
Average temperature yesterday: 63 °F

High & Low Weather Summary for the Past Weeks

 TemperatureHumidityPressure
High74 °F (Aug 17, 4:00 PM)98% (Aug 21, 7:00 AM)30.26 "Hg (Aug 21, 7:00 AM)
Low44 °F (Aug 12, 5:00 AM)34% (Aug 17, 3:00 PM)29.58 "Hg (Aug 13, 2:00 AM)
Average61 °F74%29.98 "Hg
* Reported Aug 11 2:00 PM — Aug 26 2:00 PM, Lørenskog, Weather by CustomWeather, © 2016

Note: Actual official high and low records may vary slightly from our data, if they occured in-between our weather recording intervals... More about our weather records

Advertising

Lørenskog Weather History for the Previous 24 Hours

Scroll right to see more
 ConditionsComfort  
Time TempWeatherWind HumidityBarometerVisibility
2:00 PM
Fri, Aug 26
67 °FSprinkles. Overcast.3 mph85%29.71 "Hg12 mi
1:00 PM67 °FMild.3 mph86%29.74 "HgN/A
12:00 PM66 °FMild.3 mph88%29.77 "Hg9 mi
11:00 AM65 °FLow clouds.2 mph91%29.81 "Hg11 mi
10:00 AM65 °FMild.1 mph92%29.83 "HgN/A
9:00 AM64 °FMild.2 mph93%29.86 "Hg31 mi
8:00 AM63 °FLight rain. Low clouds.2 mph95%29.89 "Hg12 mi
7:00 AM62 °FRain. Cloudy.2 mph95%29.91 "Hg9 mi
6:00 AM62 °FCool.2 mph97%29.94 "HgN/A
5:00 AM62 °FLight rain. Overcast.3 mph95%29.94 "Hg14 mi
4:00 AM62 °FRain. Overcast.1 mph95%29.97 "Hg2 mi
3:00 AM62 °FFog.2 mph95%29.98 "Hg4 mi
2:00 AM62 °FFog.1 mph97%30.00 "Hg2 mi
1:00 AM63 °FFog.2 mph97%30.00 "Hg2 mi
12:00 AM63 °FMild.1 mph97%30.01 "HgN/A
11:00 PM
Thu, Aug 25
63 °FMild.2 mph97%30.02 "HgN/A
10:00 PM63 °FFog.1 mph97%30.02 "Hg1 mi
8:00 PM63 °FFog.2 mph97%30.01 "Hg2 mi
7:00 PM63 °FMild.2 mph97%30.03 "Hg2 mi
6:00 PM63 °FRain. Cloudy.1 mph97%30.03 "Hg1 mi
5:00 PM64 °FRain. Low clouds.1 mph96%30.05 "Hg1 mi
4:00 PM64 °FRain showers. Cloudy.2 mph95%30.06 "Hg2 mi
3:00 PM64 °FMild.1 mph94%30.06 "HgN/A
Weather by CustomWeather, © 2016

See weather overviewHow to use our weather pages